GW1480 Weather Reports


Display with metric or nautical units.
time (UTC)temp
F
wind
direction
speed
MPH
gust
MPH
rain 1hr
in
rain 24hr
in
rain mn
in
humidity
%
barometer
mb
20260510191534 77 254 3.0 5.0 0.00 0.00 0.00 59 1017.2
20260510190926 77 244 1.0 2.0 0.00 0.00 0.00 63 1017.2
20260510190319 77 271 1.0 2.0 0.00 0.00 0.00 60 1017.2
20260510185121 77 207 0.0 2.0 0.00 0.00 0.00 56 1017.2
20260510184544 77 230 9.0 12.0 0.00 0.00 0.00 58 1016.9
20260510183943 77 249 0.0 0.0 0.00 0.00 0.00 56 1016.9
20260510183349 78 294 2.0 5.0 0.00 0.00 0.00 55 1017.2
20260510182738 78 261 4.0 7.0 0.00 0.00 0.00 57 1016.9
20260510182115 78 356 0.0 2.0 0.00 0.00 0.00 59 1016.9
20260510181544 78 231 6.0 7.0 0.00 0.00 0.00 56 1016.9
20260510180934 78 331 0.0 2.0 0.00 0.00 0.00 58 1016.5
20260510180317 77 290 4.0 5.0 0.00 0.00 0.00 53 1016.9
20260510175741 77 202 0.0 2.0 0.00 0.00 0.00 59 1016.9
20260510175152 76 235 0.0 0.0 0.00 0.00 0.00 58 1016.9
20260510173950 76 226 0.0 2.0 0.00 0.00 0.00 57 1016.9
20260510173326 76 294 1.0 2.0 0.00 0.00 0.00 57 1017.2
20260510172724 76 271 0.0 0.0 0.00 0.00 0.00 59 1017.2
20260510172111 76 30 4.0 7.0 0.00 0.00 0.00 60 1016.9
20260510170336 78 230 0.0 0.0 0.00 0.00 0.00 58 1017.2
20260510165751 77 333 4.0 7.0 0.00 0.00 0.00 55 1016.9
20260510164545 77 56 6.0 10.0 0.00 0.00 0.00 53 1016.9
20260510163944 77 266 0.0 0.0 0.00 0.00 0.00 52 1016.9
20260510162725 77 317 2.0 5.0 0.00 0.00 0.00 55 1017.2
20260510161529 77 41 1.0 2.0 0.00 0.00 0.00 53 1016.9
20260510160950 76 254 0.0 2.0 0.00 0.00 0.00 57 1016.9
20260510155736 76 5 1.0 2.0 0.00 0.00 0.00 60 1017.2
20260510155150 76 253 0.0 0.0 0.00 0.00 0.00 58 1017.2
20260510154523 75 245 0.0 0.0 0.00 0.00 0.00 61 1017.2
20260510153949 75 210 1.0 2.0 0.00 0.00 0.00 57 1017.2
20260510153322 75 5 3.0 5.0 0.00 0.00 0.00 56 1016.9
20260510152734 74 198 0.0 0.0 0.00 0.00 0.00 58 1017.2
20260510152149 74 353 2.0 5.0 0.00 0.00 0.00 61 1016.9
20260510151535 74 22 11.0 15.0 0.00 0.00 0.00 60 1017.2
20260510150914 74 235 6.0 10.0 0.00 0.00 0.00 63 1017.2
20260510150339 74 218 2.0 5.0 0.00 0.00 0.00 59 1017.2
20260510145717 73 251 0.0 0.0 0.00 0.00 0.00 62 1017.2
20260510145138 73 267 2.0 5.0 0.00 0.00 0.00 59 1017.2
20260510144510 72 333 0.0 0.0 0.00 0.00 0.00 61 1017.2
20260510143926 72 58 5.0 7.0 0.00 0.00 0.00 61 1017.2
20260510143335 71 221 0.0 0.0 0.00 0.00 0.00 65 1017.6
20260510142713 70 170 2.0 5.0 0.00 0.00 0.00 65 1017.6
20260510142128 70 76 0.0 0.0 0.00 0.00 0.00 67 1017.2
20260510140929 71 298 0.0 0.0 0.00 0.00 0.00 68 1017.6
20260510135715 70 257 0.0 0.0 0.00 0.00 0.00 62 1017.6
20260510135116 70 80 1.0 5.0 0.00 0.00 0.00 65 1017.6
20260510134511 69 144 0.0 2.0 0.00 0.00 0.00 64 1017.2
20260510133348 68 36 3.0 5.0 0.00 0.00 0.00 67 1017.2
20260510132749 68 73 0.0 0.0 0.00 0.00 0.00 68 1017.2
20260510131517 68 125 1.0 2.0 0.00 0.00 0.00 69 1017.2
20260510130920 68 50 1.0 2.0 0.00 0.00 0.00 69 1017.2
20260510130331 68 42 1.0 2.0 0.00 0.00 0.00 70 1017.2
20260510125751 67 356 1.0 5.0 0.00 0.00 0.00 67 1017.2
20260510125144 66 182 0.0 0.0 0.00 0.00 0.00 67 1017.2
20260510123308 61 11 0.0 2.0 0.00 0.00 0.00 72 1017.2
20260510122730 59 51 6.0 10.0 0.00 0.00 0.00 77 1016.9
20260510122134 57 65 0.0 0.0 0.00 0.00 0.00 82 1016.9
20260510121511 56 232 0.0 0.0 0.00 0.00 0.00 84 1017.2
20260510120949 54 88 2.0 2.0 0.00 0.00 0.00 91 1017.2
20260510115743 53 92 3.0 5.0 0.00 0.00 0.00 98 1016.5
20260510114518 52 225 0.0 0.0 0.00 0.00 0.00 98 1016.9
20260510113914 52 211 0.0 0.0 0.00 0.00 0.00 98 1016.9
20260510112710 51 191 0.0 0.0 0.00 0.00 0.00 98 1016.5
20260510112131 51 242 0.0 0.0 0.00 0.00 0.00 98 1016.5
20260510111532 51 169 0.0 0.0 0.00 0.00 0.00 98 1016.2
20260510110933 51 228 0.0 0.0 0.00 0.00 0.00 98 1016.2
20260510110312 50 225 0.0 0.0 0.00 0.00 0.00 98 1016.2
20260510105747 50 192 0.0 0.0 0.00 0.00 0.00 98 1016.2
20260510105143 50 208 0.0 0.0 0.00 0.00 0.00 98 1015.9
20260510103935 50 229 0.0 0.0 0.00 0.00 0.00 98 1015.9
20260510103324 50 167 0.0 0.0 0.00 0.00 0.00 98 1015.9
20260510102717 50 181 0.0 0.0 0.00 0.00 0.00 98 1015.9
20260510102142 50 242 0.0 0.0 0.00 0.00 0.00 98 1015.5
20260510101511 50 272 0.0 0.0 0.00 0.00 0.00 98 1015.5
20260510100351 50 223 0.0 0.0 0.00 0.00 0.00 98 1015.5
20260510095710 50 98 0.0 0.0 0.00 0.00 0.00 98 1015.5
20260510095139 50 196 0.0 0.0 0.00 0.00 0.00 98 1015.2
20260510094539 50 208 0.0 0.0 0.00 0.00 0.00 98 1015.2
20260510093908 50 217 0.0 2.0 0.00 0.00 0.00 98 1015.2
20260510093327 50 150 0.0 0.0 0.00 0.00 0.00 98 1015.5
20260510092725 50 216 0.0 0.0 0.00 0.00 0.00 98 1015.2
20260510092129 50 197 0.0 0.0 0.00 0.00 0.00 98 1015.2
20260510091537 50 234 0.0 0.0 0.00 0.00 0.00 98 1015.2
20260510090909 50 188 0.0 0.0 0.00 0.00 0.00 98 1014.9
20260510090341 50 135 0.0 0.0 0.00 0.00 0.00 98 1015.2
20260510085716 50 171 0.0 0.0 0.00 0.00 0.00 98 1014.9
20260510083948 50 206 0.0 0.0 0.00 0.00 0.00 98 1014.9
20260510083352 50 212 0.0 0.0 0.00 0.00 0.00 98 1014.5
20260510082744 50 123 0.0 0.0 0.00 0.00 0.00 98 1014.5
20260510082119 50 216 0.0 2.0 0.00 0.00 0.00 98 1014.5
20260510081549 51 194 0.0 0.0 0.00 0.00 0.00 98 1014.5
20260510080918 51 173 1.0 2.0 0.00 0.00 0.00 98 1014.5
20260510080327 51 158 0.0 2.0 0.00 0.00 0.00 98 1014.5
20260510075750 51 217 0.0 2.0 0.00 0.00 0.00 98 1014.5
20260510074542 51 218 0.0 0.0 0.00 0.00 0.00 98 1014.2
20260510073942 51 176 0.0 0.0 0.00 0.00 0.00 98 1014.5
20260510073347 51 222 0.0 0.0 0.00 0.00 0.00 98 1014.5
20260510072734 51 224 0.0 0.0 0.00 0.00 0.00 98 1014.5
20260510072126 51 170 0.0 0.0 0.00 0.00 0.00 98 1014.5
20260510071546 51 167 0.0 0.0 0.00 0.00 0.00 98 1014.5
20260510070925 51 170 0.0 0.0 0.00 0.00 0.00 98 1014.2
20260510070312 51 227 0.0 0.0 0.00 0.00 0.00 98 1014.5
20260510065734 51 178 0.0 0.0 0.00 0.00 0.00 98 1014.2
20260510065141 51 219 0.0 0.0 0.00 0.00 0.00 98 1014.5
20260510063923 51 184 0.0 0.0 0.00 0.00 0.00 98 1014.5
20260510063330 52 162 0.0 0.0 0.00 0.00 0.00 98 1014.5
20260510062709 52 207 0.0 0.0 0.00 0.00 0.00 98 1014.5
20260510062146 52 223 0.0 0.0 0.00 0.00 0.00 98 1014.2
20260510061534 52 151 0.0 0.0 0.00 0.00 0.00 98 1014.5
20260510060949 52 131 0.0 0.0 0.00 0.00 0.00 98 1014.5
20260510060341 52 203 0.0 0.0 0.00 0.00 0.00 98 1014.5
20260510055725 52 213 1.0 2.0 0.00 0.00 0.00 98 1014.5
20260510055118 52 182 0.0 0.0 0.00 0.00 0.00 98 1014.5
20260510054538 52 172 0.0 0.0 0.00 0.00 0.00 98 1014.5
20260510053314 52 204 0.0 0.0 0.00 0.00 0.00 98 1014.5
20260510052149 52 205 0.0 0.0 0.00 0.00 0.00 98 1014.5
20260510051548 52 224 0.0 0.0 0.00 0.00 0.00 98 1014.5
20260510050912 52 106 0.0 0.0 0.00 0.00 0.00 98 1014.5
20260510050332 52 193 0.0 0.0 0.00 0.00 0.00 98 1014.9
20260510045721 52 192 0.0 0.0 0.00 0.00 0.00 98 1014.9
20260510045110 52 98 0.0 0.0 0.00 0.00 0.00 98 1014.9
20260510043931 52 178 0.0 0.0 0.00 0.00 0.00 98 1015.2
20260510043338 52 197 0.0 0.0 0.00 0.00 0.00 98 1014.9
20260510042711 52 230 0.0 0.0 0.00 0.00 0.00 97 1014.9
20260510042145 52 200 0.0 0.0 0.00 0.00 0.00 97 1014.9
20260510041533 52 148 0.0 0.0 0.00 0.00 0.00 97 1014.9
20260510040924 52 204 0.0 0.0 0.00 0.00 0.00 97 1014.9
20260510040343 52 160 0.0 0.0 0.00 0.00 0.00 97 1014.9
20260510035747 52 219 0.0 0.0 0.00 0.00 0.00 97 1014.9
20260510035123 52 162 0.0 0.0 0.00 0.00 0.00 97 1014.9
20260510034541 52 175 0.0 0.0 0.00 0.00 0.00 97 1014.9
20260510033910 52 200 0.0 0.0 0.00 0.00 0.00 97 1015.2
20260510033316 52 174 0.0 0.0 0.00 0.00 0.00 97 1014.5
20260510032752 52 203 0.0 0.0 0.00 0.00 0.00 97 1014.9
20260510032147 52 113 0.0 0.0 0.00 0.00 0.00 97 1014.5
20260510031524 53 224 0.0 0.0 0.00 0.00 0.00 97 1014.5
20260510030919 53 139 0.0 0.0 0.00 0.00 0.00 97 1014.9
20260510030328 53 227 0.0 0.0 0.00 0.00 0.00 96 1014.5
20260510025732 53 215 0.0 0.0 0.00 0.00 0.00 96 1014.9
20260510025123 54 223 0.0 0.0 0.00 0.00 0.00 96 1014.5
20260510023940 54 181 0.0 0.0 0.00 0.00 0.00 96 1014.5
20260510022739 54 217 0.0 0.0 0.00 0.00 0.00 96 1014.2
20260510021510 55 227 0.0 0.0 0.00 0.00 0.00 96 1013.8
20260510020952 55 222 0.0 0.0 0.00 0.00 0.00 96 1013.8
20260510015740 55 210 0.0 0.0 0.00 0.00 0.00 95 1013.5
20260510015143 55 214 0.0 0.0 0.00 0.00 0.00 95 1013.5
20260510014511 56 218 0.0 0.0 0.00 0.00 0.00 95 1013.5
20260510013946 56 144 0.0 0.0 0.00 0.00 0.00 95 1013.5
20260510012725 56 185 0.0 0.0 0.00 0.00 0.00 95 1013.5
20260510012131 57 205 0.0 0.0 0.00 0.00 0.00 95 1013.5
20260510011556 57 119 0.0 0.0 0.00 0.00 0.00 95 1013.5
20260510010951 57 183 0.0 0.0 0.00 0.00 0.00 95 1013.2
20260510010348 58 209 0.0 0.0 0.00 0.00 0.00 94 1013.2
20260510005143 59 168 0.0 0.0 0.00 0.00 0.00 94 1013.5
20260510004550 59 165 0.0 0.0 0.00 0.00 0.00 94 1012.8
20260510003307 60 229 0.0 0.0 0.00 0.00 0.00 92 1012.8
20260510002716 61 221 0.0 0.0 0.00 0.00 0.00 92 1012.8
20260510001511 62 218 0.0 0.0 0.00 0.00 0.00 90 1012.5
20260510000943 63 242 0.0 0.0 0.00 0.00 0.00 88 1012.5
20260510000349 64 225 0.0 0.0 0.00 0.00 0.00 87 1012.5
20260509235710 66 264 0.0 0.0 0.00 0.00 0.00 85 1012.5
20260509235126 67 223 0.0 0.0 0.00 0.00 0.00 83 1012.1
20260509234543 68 242 0.0 2.0 0.00 0.00 0.00 81 1012.5
20260509233949 70 247 0.0 0.0 0.00 0.00 0.00 78 1012.5
20260509233339 71 242 0.0 0.0 0.00 0.00 0.00 72 1012.5
20260509232130 72 255 0.0 0.0 0.00 0.00 0.00 72 1012.5
20260509231509 72 264 1.0 2.0 0.00 0.00 0.00 65 1012.5
20260509230951 72 239 0.0 0.0 0.00 0.00 0.00 68 1012.1
20260509230332 72 259 0.0 0.0 0.00 0.00 0.00 64 1012.5
20260509225146 72 115 0.0 0.0 0.00 0.00 0.00 60 1012.5
20260509224535 72 264 2.0 5.0 0.00 0.00 0.00 64 1012.1
20260509223928 72 210 0.0 0.0 0.00 0.00 0.00 61 1012.5
20260509223343 72 177 0.0 2.0 0.00 0.00 0.00 63 1012.5
20260509222130 71 251 0.0 0.0 0.00 0.00 0.00 59 1012.1
20260509220918 70 325 2.0 5.0 0.00 0.00 0.00 64 1012.1
20260509220325 70 87 0.0 2.0 0.00 0.00 0.00 64 1012.5
20260509215723 70 68 0.0 2.0 0.00 0.00 0.00 62 1012.5
20260509215134 71 34 0.0 2.0 0.00 0.00 0.00 63 1012.5
20260509214520 71 146 4.0 7.0 0.00 0.00 0.00 64 1012.5
20260509213335 71 266 1.0 5.0 0.00 0.00 0.00 64 1012.5
20260509212739 71 25 3.0 7.0 0.00 0.00 0.00 62 1012.5
20260509212145 70 296 3.0 5.0 0.00 0.00 0.00 62 1012.1
20260509211542 70 290 2.0 5.0 0.00 0.00 0.00 65 1012.8
20260509210931 71 94 0.0 2.0 0.00 0.00 0.00 64 1012.5
20260509210318 71 113 0.0 0.0 0.00 0.00 0.00 62 1012.8
20260509205747 72 41 1.0 2.0 0.00 0.00 0.00 64 1012.5
20260509205134 72 30 4.0 7.0 0.00 0.00 0.00 63 1012.5
20260509204537 72 12 0.0 0.0 0.00 0.00 0.00 63 1012.5
20260509203950 72 223 0.0 0.0 0.00 0.00 0.00 60 1012.8
20260509203321 71 244 0.0 0.0 0.00 0.00 0.00 61 1012.5
20260509202753 71 291 2.0 5.0 0.00 0.00 0.00 61 1012.5
20260509202126 70 166 0.0 0.0 0.00 0.00 0.00 60 1012.5
20260509201532 70 262 1.0 5.0 0.00 0.00 0.00 64 1012.5
20260509200939 70 308 2.0 5.0 0.00 0.00 0.00 64 1012.5
20260509200309 70 249 0.0 0.0 0.00 0.00 0.00 63 1012.1
20260509195125 70 208 3.0 5.0 0.00 0.00 0.00 68 1012.5
20260509193915 70 68 5.0 7.0 0.00 0.00 0.00 63 1012.5
20260509193337 71 25 2.0 2.0 0.00 0.00 0.00 63 1012.8
20260509192748 71 100 5.0 7.0 0.00 0.00 0.00 63 1012.5